User: anonymous   Login
Location: Newark
(55.7083°N, 13.1992°E)
Time: 04:15:16
(UTC+00:00)
Language:

PicSat - Orbit

View from above orbital plane
View from above orbital plane
View from above satellite
View from above satellite

Ground track
Ground track

The orbit data is extracted from the following two-line orbital elements,

1 43131U 18004W   20091.90137569 +.00001924 +00000-0 +79936-4 0  9991
2 43131 097.4545 164.2534 0008226 333.4059 026.6755 15.25013936123279
Epoch (UTC): 31 March 2020 21:37:58
Eccentricity: 0.0008226
inclination: 97.4545°
perigee height: 485 km
apogee height: 496 km
right ascension of ascending node: 164.2534°
argument of perigee: 333.4059°
revolutions per day: 15.25013936
mean anomaly at epoch: 26.6755°
orbit number at epoch: 12327

The dashed part of the orbit path shows where the satellite is in the earth's shadow,  

DLR